Stations météo

réclame
Mon MeteoGroup
Grenoble/St.Geoirs, France (7486): Température de l'air & dewpoint: 17.05.2018 22:00:00 - 23.05.2018 22:00:00 (CEST)Grenoble/St.Geoirs, France (7486): Température de l'air 5cm: 17.05.2018 22:00:00 - 23.05.2018 22:00:00 (CEST)Grenoble/St.Geoirs, France (7486): Température de l'air -20cm & Température de l'air -100cm: 17.05.2018 22:00:00 - 23.05.2018 22:00:00 (CEST)Grenoble/St.Geoirs, France (7486): Vitesse du vent & gusts: 17.05.2018 22:00:00 - 23.05.2018 22:00:00 (CEST)Grenoble/St.Geoirs, France (7486): Direction du vent: 17.05.2018 22:00:00 - 23.05.2018 22:00:00 (CEST)Grenoble/St.Geoirs, France (7486): reduced air pressure: 17.05.2018 22:00:00 - 23.05.2018 22:00:00 (CEST)Grenoble/St.Geoirs, France (7486): visibility: 17.05.2018 22:00:00 - 23.05.2018 22:00:00 (CEST)Grenoble/St.Geoirs, France (7486): Ensoleillement: 17.05.2018 22:00:00 - 23.05.2018 22:00:00 (CEST)Grenoble/St.Geoirs, France (7486): Quantités de précipitations: 17.05.2018 22:00:00 - 23.05.2018 22:00:00 (CEST)
Date & Time tt [°C] td [°C] tt 5cm [°C] tt -20cm [°C] tt -100cm [°C] ff [km/h] ff [knt] fx [km/h] fx [knt] dd ppp [hPa] vv [km] sd [min] rr [mm]
23.05.2018 22:00:00 13,4 11,5 10,0 17,7 14,4 6 4 11 6 E 1018,6 13 0 0,0
23.05.2018 21:00:00 15,7 12,3 13,9 17,6 14,4 8 4 10 5 E 1017,5 40 45 0,0
23.05.2018 20:00:00 18,7 12,4 21,0 17,5 14,4 6 3 13 7 E 1016,7 51 60 0,0
23.05.2018 19:00:00 19,1 12,8 23,2 17,4 14,4 7 4 11 6 NE 1016,4 38 60 0,0
23.05.2018 18:00:00 18,8 12,8 21,7 17,4 14,4 6 3 19 10 SE 1016,8 39 60 0,0
23.05.2018 17:00:00 17,4 12,5 16,0 17,3 14,4 11 6 16 9 E 1017,4 40 2 0,0
23.05.2018 16:00:00 16,8 12,7 17,2 17,2 14,4 8 4 24 13 N 1017,9 5 1 0,2
23.05.2018 15:00:00 18,8 13,2 20,4 17,1 14,3 8 4 14 7 WNW 1017,1 38 5 0,0
23.05.2018 14:00:00 20,0 13,2 22,8 17,0 14,3 6 4 13 7 ESE 1017,3 33 22 0,0
23.05.2018 13:00:00 18,1 13,0 20,1 17,0 14,3 4 2 12 6 NE 1017,5 30 4 0,0
23.05.2018 12:00:00 17,0 13,5 19,6 17,0 14,3 5 3 8 4 NNW 1017,8 18 0 0,0
23.05.2018 11:00:00 16,6 12,7 19,8 17,1 14,3 2 1 8 4 WNW 1017,7 28 0 0,0
23.05.2018 10:00:00 15,4 13,4 15,8 17,1 14,3 4 2 12 6 NNE 1017,8 14 0 0,0
23.05.2018 09:00:00 14,1 13,1 14,4 17,2 14,3 10 5 14 8 E 1017,6 7 0 0,0
23.05.2018 08:00:00 13,4 12,9 13,0 17,3 14,3 9 5 18 10 E 1017,6 5 2 0,0
23.05.2018 07:00:00 12,7 12,2 11,4 17,4 14,3 9 5 18 10 E 1017,1 0,3 0 0,0
23.05.2018 06:00:00 11,9 11,3 11,0 17,5 14,3 7 4 16 8 ENE 1016,8 1,4 0 0,0
23.05.2018 05:00:00 11,9 11,3 10,7 17,6 14,3 9 5 11 6 E 1016,7 3,8 0 0,0
23.05.2018 04:00:00 12,8 12,0 11,9 17,7 14,3 8 4 11 6 E 1016,7 4,9 0 0,0
23.05.2018 03:00:00 13,0 12,2 12,4 17,8 14,2 9 5 11 6 E 1016,4 4,2 0 0,0
23.05.2018 02:00:00 13,5 12,7 12,8 17,8 14,2 7 4 11 6 E 1016,5 4,0 0 0,0
23.05.2018 01:00:00 13,8 12,9 13,4 17,9 14,2 7 4 11 6 ENE 1016,7 12 0 0,2
23.05.2018 00:00:00 14,0 12,7 13,4 17,9 14,2 6 3 8 4 SE 1016,4 15 0 0,0
22.05.2018 23:00:00 14,3 13,2 13,3 17,9 14,2 6 3 9 5 ENE 1016,7 7 0 0,0
22.05.2018 22:00:00 14,4 12,9 13,7 17,9 14,2 4 2 20 11 NE 1015,9 19 0 0,6
22.05.2018 21:00:00 15,1 12,4 13,6 17,9 14,2 5 3 18 10 ENE 1014,6 24 0 0,2
22.05.2018 20:00:00 15,9 11,7 15,9 17,8 14,2 14 8 33 18 ESE 1014,4 56 0 0,0
22.05.2018 19:00:00 16,1 12,6 16,0 17,7 14,2 18 10 35 19 SE 1013,7 28 0 0,0
22.05.2018 18:00:00 20,7 13,4 21,8 17,5 14,2 15 8 27 15 NW 1011,4 37 10 0,0
22.05.2018 17:00:00 22,2 12,7 25,2 17,3 14,2 16 8 26 14 WNW 1010,5 28 30 0,0
22.05.2018 16:00:00 22,2 13,0 24,4 17,2 14,2 10 5 19 10 NW 1010,7 33 10 0,0
22.05.2018 15:00:00 21,5 13,4 24,7 17,0 14,1 10 6 20 11 N 1011,2 46 12 0,0
22.05.2018 14:00:00 21,4 12,5 23,9 16,9 14,1 9 5 19 10 N 1011,4 49 18 0,0
22.05.2018 13:00:00 21,3 13,2 23,2 16,8 14,1 11 6 18 10 NE 1011,6 20 32 0,0
22.05.2018 12:00:00 21,0 12,2 21,9 16,8 14,1 5 3 16 8 WNW 1011,9 40 47 0,0
22.05.2018 11:00:00 19,9 12,9 23,6 16,8 14,1 3 2 18 10 NNE 1012,1 20 47 0,0
22.05.2018 10:00:00 18,3 13,8 20,3 16,8 14,1 8 5 18 10 E 1012,3 19 60 0,0
22.05.2018 09:00:00 16,2 12,9 18,7 16,9 14,1 14 7 20 11 E 1012,5 20 60 0,0
22.05.2018 08:00:00 14,6 12,5 14,3 17,0 14,1 11 6 15 8 E 1012,6 20 26 0,0
22.05.2018 07:00:00 13,4 12,3 12,5 17,1 14,1 8 5 16 9 E 1012,5 16 22 0,0
22.05.2018 06:00:00 13,1 12,2 12,5 17,1 14,0 8 4 13 7 ENE 1012,3 18 0 0,0
22.05.2018 05:00:00 13,4 12,5 12,7 17,2 14,1 6 3 19 10 NE 1012,4 7 0 0,2
22.05.2018 04:00:00 13,4 12,3 13,0 17,3 14,0 12 7 19 11 ENE 1012,6 20 0 0,2
22.05.2018 03:00:00 13,6 12,3 13,0 17,3 14,0 10 5 15 8 ENE 1012,6 12 0 1,0
22.05.2018 02:00:00 14,0 12,6 13,3 17,4 14,1 11 6 17 9 E 1013,0 10 0 0,8
22.05.2018 01:00:00 14,8 12,3 14,5 17,4 14,0 11 6 30 16 E 1013,3 36 0 0,0
22.05.2018 00:00:00 15,0 11,8 12,6 17,5 14,0 16 9 31 17 ENE 1013,4 43 0 0,0
21.05.2018 23:00:00 14,2 10,2 12,6 17,5 14,0 7 4 10 5 E 1012,9 58 0 0,0
21.05.2018 22:00:00 15,6 9,9 13,4 17,5 14,0 3 2 22 12 SSW 1012,3 60 0 0,0
21.05.2018 21:00:00 16,2 10,5 15,4 17,3 14,0 14 8 20 11 W 1011,7 56 0 0,0
21.05.2018 20:00:00 18,3 9,6 17,8 17,3 14,0 4 2 37 20 SSW 1010,9 37 0 0,0
21.05.2018 19:00:00 21,3 9,8 21,8 17,1 14,0 5 3 10 5 SSW 1010,0 56 0 0,0
21.05.2018 18:00:00 22,1 10,9 24,4 17,0 13,9 7 4 10 6 S 1009,6 55 0 0,0
21.05.2018 17:00:00 22,7 10,2 25,2 16,9 13,9 5 3 8 5 ENE 1009,6 52 15 0,0
21.05.2018 16:00:00 23,0 9,7 23,6 16,7 13,9 4 2 11 6 NE 1010,1 39 19 0,0
21.05.2018 15:00:00 21,7 9,9 23,8 16,6 13,9 5 3 14 8 W 1011,1 53 7 0,0
21.05.2018 14:00:00 21,3 10,1 19,2 16,5 13,9 3 2 12 6 W 1011,7 59 18 0,0
21.05.2018 13:00:00 19,4 12,4 17,8 16,4 13,9 4 2 16 9 W 1012,4 11 4 1,2
21.05.2018 12:00:00 21,5 12,6 23,0 16,5 13,9 7 4 18 10 ENE 1012,4 20 53 0,0
21.05.2018 11:00:00 20,8 13,2 23,9 16,5 13,9 8 4 17 9 ENE 1012,8 27 60 0,0
21.05.2018 10:00:00 18,8 13,0 18,9 16,6 13,9 12 6 25 13 E 1013,3 27 58 0,0
21.05.2018 09:00:00 15,2 12,0 15,5 16,7 13,9 14 8 27 15 E 1014,0 32 20 0,0
21.05.2018 08:00:00 14,4 11,5 11,7 16,8 13,9 16 9 24 13 E 1014,1 24 31 0,0
21.05.2018 07:00:00 11,6 10,5 10,3 16,9 13,9 14 8 19 10 E 1014,7 20 11 0,0
21.05.2018 06:00:00 11,0 9,9 10,2 17,0 13,8 14 8 17 9 E 1014,7 20 0 0,0
21.05.2018 05:00:00 12,1 10,8 11,2 17,0 13,8 13 7 20 11 E 1014,4 20 0 0,0
21.05.2018 04:00:00 12,6 11,5 12,1 17,2 13,8 13 7 19 10 E 1014,4 12 0 0,0
21.05.2018 03:00:00 12,5 11,6 11,4 17,2 13,8 15 8 20 11 E 1014,6 11 0 0,0
21.05.2018 02:00:00 12,1 11,0 11,4 17,3 13,8 10 6 16 9 E 1015,1 13 0 0,0
21.05.2018 01:00:00 12,0 10,7 10,8 17,3 13,8 10 5 18 10 E 1015,5 20 0 0,0
21.05.2018 00:00:00 12,7 10,9 10,2 17,3 13,8 11 6 15 8 ENE 1015,5 42 0 0,0
20.05.2018 23:00:00 13,5 11,4 12,7 17,3 13,8 9 5 20 11 E 1015,1 41 0 0,0
20.05.2018 22:00:00 14,1 11,6 - - - 15 8 28 15 E 1015,1 45 - 0,0
20.05.2018 21:00:00 14,8 11,6 14,5 17,1 13,8 17 9 36 20 ENE 1014,5 50 42 0,0
20.05.2018 20:00:00 16,3 11,2 16,7 16,9 13,8 26 14 42 23 E 1014,0 22 51 0,0
20.05.2018 19:00:00 21,9 9,4 25,0 16,7 13,8 11 6 19 10 NNW 1011,9 27 53 0,0
20.05.2018 18:00:00 22,3 9,1 25,4 16,5 13,8 9 5 19 10 N 1012,1 30 51 0,0
20.05.2018 17:00:00 22,2 10,0 25,3 16,3 13,8 11 6 31 17 NNW 1012,5 33 55 0,0
20.05.2018 16:00:00 22,5 9,3 24,9 16,1 13,8 13 7 31 17 NNW 1013,0 20 45 0,0
20.05.2018 15:00:00 21,5 10,6 24,0 15,9 13,7 6 3 24 13 NW 1014,1 44 34 0,0
20.05.2018 14:00:00 21,4 11,1 26,6 15,8 13,7 9 5 22 12 NE 1014,6 20 60 0,0
20.05.2018 13:00:00 20,4 10,2 24,4 15,7 13,7 10 5 21 12 N 1015,3 20 51 0,0
20.05.2018 12:00:00 19,9 10,0 25,0 15,7 13,8 10 5 20 11 NNE 1015,7 18 60 0,0
20.05.2018 11:00:00 18,3 10,6 24,7 15,7 13,7 4 2 10 6 WNW 1016,1 20 60 0,0
20.05.2018 10:00:00 17,9 10,5 22,7 15,9 13,7 6 3 11 6 SE 1016,5 20 60 0,0
20.05.2018 09:00:00 14,8 10,6 17,2 16,0 13,7 2 1 8 4 WNW 1017,2 19 60 0,0
20.05.2018 08:00:00 12,0 10,4 9,2 16,1 13,7 4 2 10 5 E 1017,5 12 60 0,0
20.05.2018 07:00:00 8,3 7,9 2,5 16,2 13,7 6 4 10 5 ENE 1018,0 7 22 0,0
20.05.2018 06:00:00 7,8 7,0 2,6 16,4 13,7 3 2 9 5 SSE 1018,0 9 0 0,0
20.05.2018 05:00:00 8,1 7,2 2,5 16,5 13,7 0 0 11 6 N 1017,8 9 0 0,0
20.05.2018 04:00:00 8,9 7,7 3,7 16,6 13,7 6 3 14 7 E 1017,6 13 0 0,0
20.05.2018 03:00:00 8,7 7,5 5,7 16,7 13,7 10 5 12 7 E 1017,7 12 0 0,0
20.05.2018 02:00:00 9,9 8,5 6,0 16,8 13,7 8 4 11 6 ENE 1017,7 14 0 0,0
20.05.2018 01:00:00 10,7 8,8 6,6 16,8 13,7 6 4 11 6 SE 1017,5 12 0 0,0
20.05.2018 00:00:00 12,0 9,2 7,0 16,8 13,7 6 4 12 6 ESE 1017,2 20 0 0,0
19.05.2018 23:00:00 14,2 10,0 11,2 16,8 13,7 8 4 15 8 E 1017,0 20 0 0,0
19.05.2018 22:00:00 16,5 9,2 11,6 16,7 13,7 8 4 21 11 NNE 1016,3 32 0 0,0
19.05.2018 21:00:00 16,6 9,5 13,7 16,6 13,6 7 4 16 9 WSW 1016,0 40 21 0,0
19.05.2018 20:00:00 19,7 8,7 21,4 16,4 13,6 11 6 24 13 NNW 1015,3 20 60 0,0
19.05.2018 19:00:00 20,8 8,8 24,3 16,2 13,6 16 8 29 16 NNW 1014,7 19 60 0,0
19.05.2018 18:00:00 21,5 9,4 26,4 16,0 13,6 13 7 32 17 N 1015,0 17 60 0,0
19.05.2018 17:00:00 21,7 9,9 27,1 15,7 13,6 16 8 31 17 NNW 1015,0 17 60 0,0
19.05.2018 16:00:00 22,0 11,4 27,6 15,5 13,6 15 8 33 18 NNW 1015,1 20 60 0,0
19.05.2018 15:00:00 21,4 10,2 27,8 15,4 13,6 15 8 26 14 NNW 1015,3 19 60 0,0
19.05.2018 14:00:00 20,8 11,7 26,5 15,3 13,6 12 7 31 17 NNW 1015,9 19 60 0,0
19.05.2018 13:00:00 20,1 10,8 21,4 15,2 13,6 16 9 26 14 N 1016,7 20 52 0,0
19.05.2018 12:00:00 18,9 11,2 21,8 15,2 13,6 11 6 21 11 NW 1017,3 19 51 0,0
19.05.2018 11:00:00 18,1 11,9 23,4 15,2 13,6 5 3 16 8 W 1017,5 19 60 0,0
19.05.2018 10:00:00 15,6 10,8 21,9 15,3 13,6 5 3 10 5 WSW 1018,0 17 60 0,0
19.05.2018 09:00:00 13,4 10,6 18,4 15,4 13,6 4 2 8 4 WSW 1018,3 15 60 0,0
19.05.2018 08:00:00 11,0 10,2 9,2 15,6 13,6 3 2 6 4 SSW 1018,3 13 60 0,0
19.05.2018 07:00:00 8,2 7,6 2,9 15,7 13,6 5 3 6 3 ESE 1018,3 6 31 0,0
19.05.2018 06:00:00 7,6 6,8 2,9 15,8 13,6 3 2 7 4 ESE 1017,9 5 0 0,0
19.05.2018 05:00:00 8,0 7,2 3,6 15,9 13,6 5 3 8 5 E 1017,9 4,7 0 0,0
19.05.2018 04:00:00 8,7 7,6 3,8 16,0 13,6 4 2 8 4 E 1018,0 7 0 0,0
19.05.2018 03:00:00 9,4 8,3 5,3 16,1 13,6 4 2 8 5 E 1018,1 9 0 0,0
19.05.2018 02:00:00 10,4 8,8 5,2 16,1 13,6 4 2 9 5 SSE 1018,0 11 0 0,0
19.05.2018 01:00:00 11,3 9,2 7,2 16,1 13,6 5 3 9 5 SE 1018,1 13 0 0,0
19.05.2018 00:00:00 12,9 9,7 8,9 16,1 13,5 6 3 15 8 SE 1017,8 19 0 0,0
18.05.2018 23:00:00 14,7 10,5 9,8 16,1 13,5 10 5 23 13 N 1017,3 29 0 0,0
18.05.2018 22:00:00 15,4 10,2 11,6 16,0 13,6 4 2 11 6 WSW 1017,0 35 0 0,0
18.05.2018 21:00:00 16,5 10,1 13,8 15,9 13,5 8 4 27 15 WNW 1016,4 34 31 0,0
18.05.2018 20:00:00 19,3 12,3 20,4 15,7 13,5 11 6 21 12 NNW 1015,7 19 43 0,0
18.05.2018 19:00:00 20,4 13,1 23,2 15,5 13,6 12 7 21 11 NW 1015,4 15 52 0,0
18.05.2018 18:00:00 20,9 12,3 24,4 15,3 13,5 8 4 37 20 NW 1015,5 18 54 0,0
18.05.2018 17:00:00 20,4 12,4 21,7 15,2 13,5 14 7 29 16 NW 1015,5 20 32 0,0
18.05.2018 16:00:00 19,9 10,9 23,3 15,0 13,5 11 6 24 13 NNW 1015,9 17 45 0,0
18.05.2018 15:00:00 19,8 12,3 22,4 14,9 13,5 12 7 22 12 NW 1016,5 15 28 0,0
18.05.2018 14:00:00 18,8 11,6 22,1 14,8 13,5 9 5 23 12 N 1017,2 22 10 0,0
18.05.2018 13:00:00 17,9 10,5 21,2 14,8 13,5 12 7 23 12 NNE 1018,0 19 18 0,0
18.05.2018 12:00:00 17,8 11,6 17,9 14,8 13,5 11 6 20 11 NNE 1018,1 19 21 0,0
18.05.2018 11:00:00 15,2 10,8 16,9 14,8 13,5 10 5 18 10 N 1018,4 17 1 0,0
18.05.2018 10:00:00 15,0 11,6 18,1 14,9 13,5 11 6 20 11 N 1018,4 14 47 0,0
18.05.2018 09:00:00 12,4 11,3 12,2 15,0 13,5 3 2 9 5 SE 1018,9 9 20 0,0
18.05.2018 08:00:00 11,1 10,6 10,2 15,1 13,5 3 2 13 7 E 1019,1 5 1 0,0
18.05.2018 07:00:00 9,4 9,1 6,2 15,2 13,5 5 3 9 5 E 1019,1 3,3 22 0,0
18.05.2018 06:00:00 7,2 6,5 3,2 15,3 13,5 5 3 9 5 ESE 1019,1 0,1 0 0,0
18.05.2018 05:00:00 8,0 7,2 3,4 15,4 13,5 5 3 10 5 SE 1018,7 3,3 0 0,0
18.05.2018 04:00:00 8,3 7,7 4,0 15,5 13,5 5 3 9 5 NE 1018,5 1,7 0 0,0
18.05.2018 03:00:00 8,8 7,7 3,7 15,6 13,5 3 1 6 4 E 1018,5 0,8 0 0,0
18.05.2018 02:00:00 9,5 8,4 4,8 15,6 13,5 5 3 9 5 SE 1018,4 5 0 0,0
18.05.2018 01:00:00 10,2 8,5 5,6 15,7 13,5 0 0 8 4 N 1018,5 7 0 0,0
18.05.2018 00:00:00 12,1 9,7 6,9 15,7 13,5 4 2 10 5 SSE 1018,2 15 0 0,0
17.05.2018 23:00:00 13,3 10,8 9,2 15,6 13,5 2 1 10 5 E 1017,8 19 0 0,0
17.05.2018 22:00:00 14,5 11,1 10,1 15,5 13,5 3 2 18 10 NW 1017,5 20 0 0,0

tt = Température de l'air
td = dewpoint
tt 5cm = Température de l'air 5cm
tt -20cm = Température de l'air -20cm
tt -100cm = Température de l'air -100cm
ff = Vitesse du vent
fx = gusts
dd = Direction du vent
ppp = reduced air pressure
vv = visibility
sd = Ensoleillement
rr = Quantités de précipitations

stations d'obs. à proximité